[[{"header":{"parameterUnit":"m.s-1","parameterCategory":1,"la1":30.2991,"la2":30.254,"lo1":-89.0895,"lo2":-89.0444,"dy":0.0017,"dx":0.0017,"nx":28,"ny":28,"refTime":"2024-07-23T03:00:00:Z","depth":0,"parameterNumber":2,"parameterNumberName":"U-component_of_WINDS"},"data":[0,0,0,0,0,0,0,0,0,0,0,0,0,0,0,0,0,0,0,0,0,0,0,0,0,0,0,0,0,0,0,0,0,0,0,0,0,0,0,0,0,0,0,0,0,0,0,0,0,0,0,0,0,0,0,0,0,0,-0.118,-0.118,0,-0.1143,-0.1143,-0.1142,-0.1112,-0.1111,-0.1111,-0.1111,-0.1073,-0.1072,-0.1071,0,0,0,0,0,0,0,0,0,0,0,0,0,-0.1225,-0.1225,-0.118,-0.118,-0.1179,-0.1143,-0.1143,-0.1142,-0.1112,-0.1111,-0.1111,-0.1111,-0.1073,-0.1072,-0.1071,0,0,0,0,0,0,0,0,0,0,0,0,0,-0.1199,-0.1224,-0.118,-0.116,-0.1157,-0.1143,-0.1143,-0.1142,-0.1112,-0.1111,-0.1111,-0.111,-0.1073,-0.1072,-0.1071,-0.1074,0,0,-0.1068,-0.1067,0,0,0,0,0,0,0,0,-0.12,-0.1197,-0.1163,-0.1161,-0.1159,-0.1132,-0.1145,-0.1119,-0.1112,-0.1129,-0.1111,-0.111,-0.1093,-0.109,-0.1084,-0.1073,-0.1071,-0.1068,-0.1067,-0.1067,-0.1066,0,0,0,0,0,0,0,-0.1202,-0.1199,-0.1165,-0.1163,-0.116,-0.1153,-0.1148,-0.114,-0.1114,-0.1128,-0.1125,-0.1121,-0.1091,-0.1085,-0.1083,-0.107,-0.1068,-0.1067,-0.1066,-0.1066,-0.1062,-0.1063,0,0,0,0,0,0,-0.1207,-0.12,-0.1167,-0.1164,-0.1179,-0.1152,-0.1147,-0.1141,-0.1114,-0.111,-0.1122,-0.112,-0.1087,-0.1084,-0.1082,-0.1085,-0.1067,-0.1066,-0.1065,-0.1061,-0.1062,-0.1063,0,0,0,0,0,0,-0.1208,-0.1204,-0.1168,-0.1182,-0.1177,-0.1152,-0.1145,-0.114,-0.1134,-0.111,-0.1105,-0.112,-0.1087,-0.1083,-0.1077,-0.1083,-0.1065,-0.1064,-0.1061,-0.1062,-0.1062,-0.1091,0,0,0,0,0,0,-0.121,-0.1205,-0.1205,-0.1182,-0.1176,-0.1164,-0.1145,-0.114,-0.1132,-0.113,-0.1107,-0.1103,-0.1086,-0.1079,-0.1076,-0.1081,-0.1063,-0.106,-0.1061,-0.1062,-0.109,-0.1093,-0.1096,0,0,0,0,0,-0.1211,-0.1215,-0.1206,-0.1202,-0.1176,-0.1164,-0.1161,-0.1142,-0.1133,-0.1134,-0.1119,-0.1104,-0.1083,-0.1078,-0.1075,-0.108,-0.106,-0.1061,-0.1062,-0.1088,-0.1092,-0.1096,0,0,0,0,0,0,-0.1239,-0.1211,-0.1201,-0.1196,-0.1183,-0.1159,-0.1159,-0.1146,-0.1135,-0.1133,-0.1109,-0.1105,-0.1101,-0.109,-0.1085,-0.1083,-0.1069,-0.107,-0.1091,-0.1094,-0.1097,-0.11,-0.1063,0,0,0,0,0,-0.1245,-0.1237,-0.1213,-0.1212,-0.1206,-0.1184,-0.1178,-0.1164,-0.1149,-0.1144,-0.1128,-0.1114,-0.1104,-0.1099,-0.1088,-0.1088,-0.1083,-0.109,-0.1093,-0.1096,-0.1097,-0.1097,-0.1101,-0.1067,-0.1067,-0.1067,0,0,-0.1256,-0.124,-0.1236,-0.1217,-0.1205,-0.1198,-0.1179,-0.1172,-0.1168,-0.1142,-0.1136,-0.1124,-0.1107,-0.1105,-0.1103,-0.1095,-0.1105,-0.1097,-0.11,-0.1099,-0.1099,-0.1102,-0.1105,-0.1067,-0.1067,-0.1067,0,0,-0.1274,-0.126,-0.1258,-0.1247,-0.123,-0.1215,-0.1215,-0.1194,-0.1185,-0.1178,-0.116,-0.1154,-0.1138,-0.1127,-0.1119,-0.1136,-0.1122,-0.1133,-0.1149,-0.115,-0.1153,-0.1155,-0.1162,-0.1165,-0.1134,-0.1134,-0.1134,0,-0.129,-0.1279,-0.1259,-0.1254,-0.1247,-0.1225,-0.1223,-0.1213,-0.1193,-0.1189,-0.1181,-0.1162,-0.1148,-0.1144,-0.1148,-0.1142,-0.1142,-0.1135,-0.1154,-0.1156,-0.1158,-0.1164,-0.1167,-0.1135,-0.1135,-0.1135,-0.1135,0,-0.1301,-0.1294,-0.1294,-0.1277,-0.1269,-0.1266,-0.1246,-0.1241,-0.1229,-0.1216,-0.1211,-0.1195,-0.1182,-0.118,-0.1167,-0.1174,-0.117,-0.1158,-0.1144,-0.1163,-0.1169,-0.1171,-0.1138,-0.1137,-0.1137,-0.1136,0,0,-0.1334,-0.1306,-0.1307,-0.1299,-0.1279,-0.1274,-0.127,-0.1258,-0.1255,-0.1242,-0.124,-0.1228,-0.1217,-0.1209,-0.1195,-0.1196,-0.1212,-0.1184,-0.1184,-0.1191,-0.122,-0.1229,-0.1232,-0.1203,-0.1203,-0.1203,-0.1222,0,-0.1349,-0.1341,-0.1324,-0.1322,-0.1316,-0.1296,-0.1294,-0.1281,-0.127,-0.1263,-0.125,-0.1243,-0.1229,-0.1224,-0.1224,-0.121,-0.1217,-0.1208,-0.1201,-0.1201,-0.1206,-0.1235,-0.1245,-0.1263,-0.1224,-0.1224,-0.1224,0,-0.1365,-0.1355,-0.1353,-0.1335,-0.1332,-0.1329,-0.1318,-0.1312,-0.1298,-0.129,-0.1282,-0.1267,-0.1263,-0.125,-0.1246,-0.124,-0.1236,-0.1229,-0.1229,-0.1228,-0.1214,-0.1236,-0.1268,-0.1271,-0.1227,-0.1227,-0.1227,0,-0.1391,-0.1376,-0.1374,-0.1368,-0.1346,-0.1346,-0.1337,-0.1323,-0.1317,-0.1308,-0.1304,-0.1294,-0.1288,-0.1281,-0.1264,-0.1256,-0.1262,-0.1247,-0.1256,-0.1256,-0.1258,-0.1258,-0.1291,-0.1254,-0.1254,-0.1254,-0.1254,0,-0.141,-0.1409,-0.1385,-0.1384,-0.1383,-0.1364,-0.1365,-0.1354,-0.1342,-0.1339,-0.132,-0.1317,-0.1295,-0.129,-0.1277,-0.1276,-0.1274,-0.1267,-0.1264,-0.1269,-0.127,-0.1267,-0.1265,-0.1255,-0.1255,-0.1254,-0.1254,0,-0.1438,-0.1422,-0.1418,-0.1399,-0.1394,-0.1395,-0.1379,-0.1377,-0.1365,-0.1361,-0.1359,-0.134,-0.1333,-0.1316,-0.1304,-0.1296,-0.1299,-0.1292,-0.1304,-0.1302,-0.1311,-0.1311,-0.1343,-0.1347,-0.1308,-0.1308,-0.1308,0,-0.1452,-0.1451,-0.1433,-0.1429,-0.1422,-0.1416,-0.1411,-0.1393,-0.1388,-0.1374,-0.1374,-0.1366,-0.1359,-0.1349,-0.1335,-0.1326,-0.132,-0.1332,-0.1318,-0.1324,-0.1321,-0.1322,-0.1322,-0.1335,-0.1335,-0.1336,-0.1336,0,-0.1478,-0.147,-0.1463,-0.1455,-0.1449,-0.1441,-0.1432,-0.143,-0.141,-0.1406,-0.1399,-0.1394,-0.1383,-0.1376,-0.1366,-0.1357,-0.1344,-0.1341,-0.1342,-0.1348,-0.1355,-0.1353,-0.1312,-0.134,-0.1339,-0.1339,-0.1339,-0.1339,-0.15,-0.1499,-0.1487,-0.148,-0.1472,-0.1464,-0.1462,-0.1451,-0.1445,-0.1435,-0.1425,-0.142,-0.1408,-0.1393,-0.1385,-0.1382,-0.1374,-0.1376,-0.1377,-0.1378,-0.1381,-0.1356,-0.1379,-0.1379,-0.1379,-0.1379,-0.1379,0,-0.1526,-0.1517,-0.1512,-0.15,-0.1496,-0.1484,-0.1474,-0.1471,-0.1467,-0.1457,-0.1451,-0.1445,-0.1438,-0.1423,-0.1416,-0.1416,-0.141,-0.1414,-0.1415,-0.1413,-0.1387,-0.1387,-0.142,-0.142,-0.142,-0.142,-0.142,-0.142,-0.1539,-0.1538,-0.1529,-0.1525,-0.1516,-0.1511,-0.1507,-0.15,-0.1493,-0.1486,-0.1481,-0.1472,-0.1461,-0.1453,-0.1447,-0.1442,-0.1441,-0.1448,-0.1442,-0.1419,-0.1415,-0.1411,-0.1411,-0.1448,-0.1448,-0.1468,-0.1468,-0.1469]},{"header":{"parameterUnit":"m.s-1","parameterCategory":1,"la1":30.2991,"la2":30.254,"lo1":-89.0895,"lo2":-89.0444,"dy":0.0017,"dx":0.0017,"nx":28,"ny":28,"refTime":"2024-07-23T03:00:00:Z","depth":0,"parameterNumber":3,"parameterNumberName":"V-component_of_WINDS"},"data":[0,0,0,0,0,0,0,0,0,0,0,0,0,0,0,0,0,0,0,0,0,0,0,0,0,0,0,0,0,0,0,0,0,0,0,0,0,0,0,0,0,0,0,0,0,0,0,0,0,0,0,0,0,0,0,0,0,0,4.5535,4.5535,0,4.5522,4.5522,4.5522,4.5426,4.5423,4.5421,4.5419,4.5407,4.5409,4.541,0,0,0,0,0,0,0,0,0,0,0,0,0,4.5476,4.5477,4.5535,4.5535,4.5535,4.5522,4.5522,4.5522,4.5426,4.5423,4.542,4.5418,4.5406,4.5408,4.5411,0,0,0,0,0,0,0,0,0,0,0,0,0,4.5486,4.5478,4.5535,4.5485,4.5481,4.5522,4.5522,4.5522,4.5427,4.5423,4.5419,4.5416,4.5405,4.5408,4.5411,4.55,0,0,4.542,4.5421,0,0,0,0,0,0,0,0,4.5486,4.5489,4.5493,4.5489,4.5484,4.5472,4.5497,4.5515,4.5428,4.5447,4.5419,4.5414,4.5431,4.5432,4.5437,4.5499,4.5499,4.542,4.5422,4.5423,4.5424,0,0,0,0,0,0,0,4.5485,4.5489,4.553,4.5493,4.5487,4.5463,4.5461,4.55,4.546,4.5445,4.5438,4.5438,4.5428,4.5435,4.5436,4.5499,4.542,4.5422,4.5424,4.5425,4.563,4.5634,0,0,0,0,0,0,4.5491,4.5489,4.553,4.553,4.5476,4.5467,4.5465,4.5479,4.5459,4.5452,4.5441,4.5433,4.5432,4.5433,4.5436,4.5536,4.5423,4.5426,4.5427,4.5627,4.5631,4.5635,0,0,0,0,0,0,4.549,4.5496,4.5531,4.5507,4.551,4.5472,4.5489,4.5481,4.5487,4.5456,4.5448,4.5455,4.5429,4.5432,4.5484,4.5534,4.5427,4.5429,4.5622,4.5628,4.5633,4.5739,0,0,0,0,0,0,4.5489,4.5496,4.553,4.5509,4.5511,4.558,4.5493,4.5483,4.5492,4.5482,4.5467,4.5461,4.5426,4.548,4.5487,4.5536,4.5432,4.5617,4.5625,4.5631,4.5731,4.5748,4.5762,0,0,0,0,0,4.5487,4.5561,4.5532,4.5538,4.5553,4.5583,4.5584,4.5543,4.5497,4.553,4.5509,4.5461,4.5528,4.5486,4.5493,4.5544,4.5614,4.5623,4.5631,4.5724,4.5745,4.5762,0,0,0,0,0,0,4.559,4.5557,4.5525,4.5594,4.5592,4.5567,4.5607,4.5566,4.5578,4.5568,4.5517,4.5514,4.5574,4.5564,4.5518,4.5628,4.5563,4.5573,4.5631,4.5651,4.5666,4.5666,4.5434,0,0,0,0,0,4.5621,4.5648,4.5618,4.5682,4.5682,4.5645,4.5657,4.5625,4.5621,4.562,4.5603,4.5601,4.5621,4.5636,4.5653,4.573,4.5724,4.5768,4.5784,4.5797,4.5806,4.5843,4.5862,4.5663,4.5663,4.5663,0,0,4.5684,4.567,4.569,4.5702,4.5697,4.5725,4.5645,4.568,4.57,4.5625,4.5672,4.5661,4.5655,4.5719,4.5747,4.5713,4.5859,4.5808,4.5818,4.582,4.5854,4.5873,4.589,4.5668,4.5667,4.5667,0,0,4.5814,4.5807,4.5858,4.5854,4.5846,4.5821,4.5833,4.5814,4.5802,4.5849,4.5793,4.5817,4.5854,4.5851,4.5855,4.5983,4.5938,4.599,4.607,4.6108,4.6124,4.6137,4.6181,4.6197,4.5999,4.6,4.6,0,4.5894,4.5935,4.5889,4.5927,4.5933,4.5865,4.5916,4.5914,4.5914,4.5919,4.5882,4.5925,4.5917,4.5978,4.6009,4.6016,4.6027,4.599,4.6125,4.6138,4.615,4.6191,4.6208,4.6006,4.6005,4.6004,4.6004,0,4.6032,4.6062,4.6104,4.6103,4.6114,4.6158,4.6118,4.6135,4.6103,4.6081,4.6129,4.6117,4.6129,4.6142,4.6111,4.6199,4.6178,4.6134,4.6067,4.6176,4.6213,4.6229,4.6014,4.6012,4.601,4.6009,0,0,4.6226,4.6198,4.6214,4.6212,4.6198,4.622,4.6261,4.6272,4.6286,4.6288,4.632,4.6352,4.631,4.6314,4.6283,4.6316,4.6415,4.6267,4.6266,4.6293,4.6509,4.6541,4.656,4.6386,4.6389,4.6392,4.6509,0,4.6349,4.6415,4.6375,4.6448,4.6473,4.6409,4.6444,4.6439,4.642,4.6439,4.6418,4.6441,4.6386,4.6387,4.6418,4.6397,4.6457,4.6388,4.6414,4.6416,4.6415,4.6579,4.6613,4.6724,4.6523,4.6526,4.6527,0,4.6501,4.6507,4.6582,4.6561,4.657,4.6602,4.6608,4.6627,4.662,4.6604,4.6609,4.6568,4.6606,4.6542,4.6592,4.6546,4.6555,4.6546,4.6549,4.6548,4.6477,4.6581,4.6759,4.6775,4.655,4.6549,4.6547,0,4.6631,4.6659,4.6706,4.6707,4.6684,4.6708,4.67,4.6689,4.6698,4.6704,4.6709,4.672,4.6725,4.6735,4.6698,4.6655,4.6753,4.6686,4.6739,4.674,4.6761,4.676,4.6941,4.6771,4.6771,4.6771,4.677,0,4.6771,4.6819,4.6764,4.6793,4.6844,4.6798,4.685,4.6835,4.6826,4.6851,4.6798,4.6822,4.6773,4.6793,4.6765,4.681,4.6814,4.6801,4.6792,4.6804,4.6806,4.6808,4.6798,4.6775,4.6774,4.6773,4.6772,0,4.6925,4.689,4.6937,4.6912,4.6906,4.6945,4.6923,4.6949,4.6926,4.6958,4.6963,4.6928,4.6948,4.6913,4.6929,4.691,4.6973,4.6953,4.6974,4.6968,4.7022,4.7017,4.7209,4.7231,4.705,4.7052,4.7053,0,4.7015,4.705,4.7027,4.7039,4.7034,4.7055,4.7063,4.7018,4.7029,4.7023,4.7049,4.7065,4.7074,4.711,4.7086,4.7098,4.7077,4.7144,4.7078,4.7089,4.7075,4.7072,4.7075,4.7156,4.7158,4.716,4.7162,0,4.7178,4.7159,4.7172,4.7179,4.719,4.7194,4.7194,4.7207,4.716,4.7174,4.7193,4.7201,4.7217,4.7232,4.7238,4.723,4.7188,4.7183,4.7195,4.7207,4.7216,4.7209,4.7008,4.7178,4.7176,4.7175,4.7174,4.7174,4.7301,4.7328,4.7315,4.7331,4.7326,4.7327,4.7349,4.7329,4.7344,4.7352,4.7325,4.7351,4.7342,4.7345,4.7341,4.736,4.7331,4.735,4.7354,4.7359,4.7366,4.7215,4.7362,4.7361,4.7361,4.736,4.736,0,4.7459,4.7447,4.7463,4.7463,4.7476,4.7434,4.7432,4.7445,4.7467,4.7462,4.7473,4.7494,4.7509,4.7486,4.7497,4.7516,4.7497,4.752,4.7517,4.7516,4.7393,4.738,4.7536,4.7536,4.7536,4.7535,4.7535,4.7535,4.7542,4.7585,4.7564,4.7603,4.7592,4.7615,4.7616,4.7617,4.7612,4.7638,4.7649,4.7634,4.7621,4.7631,4.7642,4.7635,4.7641,4.767,4.7657,4.7542,4.7525,4.7508,4.7495,4.7673,4.7673,4.7777,4.7778,4.7779]}]]